FENGYUN 1C DEB, 30756

Orbit data source: Space-Track

FENGYUN 1C DEB, 30756 is space debris in SSO originally from a launch on Mon, 10 May 1999 UTC launched from the Taiyaun Space Center, China (TSC). Fengyun 1C debris stems from the Chinese weather satellite Fengyun-1C, which was intentionally destroyed by a Chinese anti-satellite missile in 2007. This event dramatically increased the amount of space debris, with thousands of trackable fragments posing hazards to satellites and human spaceflight. The Fengyun 1C debris cloud has become a focal point in discussions about space sustainability and the need for international regulations to prevent the creation of new debris.

Loading next visibility...
Identifier
30756, 1999-025ATS
Orbit
SSO
Country
Flag of CNCN / PRC
Related business
Manufacturer
Unknown
Mission
Spacecraft
Bus & Motor
Unknown
Mass
Unknown
Launch date (UTC)
1999-05-10 (27 years ago)
Launch vehicle
Unknown
Launch site
Taiyaun Space Center, China (TSC)
Object type
Payload
Rocket body
Debris
Shape & HBR
Unknown shape, 0.1 m
Radar Cross Section
Medium (>0.1 m² and <1 m²)

Expand to show TLE details & history
Last TLE update: 6 hours ago

TLE from 6 hours ago
0 FENGYUN 1C DEB
1 30756U 99025ATS 26169.71865063  .00002272  00000-0  10722-2 0  9993
2 30756  98.9778 244.5973 0074921 141.1307  12.1008 14.19365087990706
Epoch: 2026-06-18T17:14Z
TLE epoch observation values (Epoch: 2026-06-18T17:14:51.414Z)
Latitude
26.2722°
Longitude
-96.62593°
Altitude
777.904 km
Speed
7.495 km/s
True Right ascension
04h 36m 11s
True Declination
26° 08' 11"
Sunlit
Object was in daylight at epoch
Visualization orbit readout
Latitude
Unknown
Longitude
Unknown
Altitude
Unknown
Speed
Unknown
Apparent Right ascension
Unknown
Apparent Declination
Unknown
Sunlit
N/A
Visualization observer readout
Local Sidereal Time
10:04:19
Azimuth
Unknown
Elevation
Unknown
Doppler factor
Unknown
Orbital elements
Apogee altitude
878.637 km
Perigee altitude
770.709 km
Semi-major axis
7,202.81 km
Eccentricity
0.00749
Inclination
98.9778°
RAAN
244.5973°
Arg. of periapsis
141.1307°
True anomaly
12.28244°
Mean anomaly
12.1008°
Eccentric anomaly
12.19145°
Mean motion
3.55051 °/min
Orbital period
101.39 mins
BSTAR
0.0010722
Loading maneuver chart data...
Computing Atmospheric mass density...

Documentation

Showing up to 5 results
|